RH
59 63 74 81 82 84 84 86 88 87 91 92 93 93 95 94 98 96 88 88 88 74 82 84 83 86 89 90 83 79 80 73 71 82 82 72 78 85 82 82 77 78 81
60 61 70 83 87 90 88 88 88 88 91 95 95 96 98 98 97 96 96 97 91 89 92 89 86 86 88 92 88 84 90 86 73 77 72 79 78 79 77 85 80 79 79
64 63 64 80 88 92 93 92 89 90 90 91 98 96 92 93 95 96 95 97 95 96 95 95 95 92 88 90 91 90 89 94 90 73 76 85 78 75 75 77 75 72 74
62 58 60 70 77 90 89 94 91 91 88 89 92 93 96 97 98 97 95 95 95 97 96 93 91 91 91 90 90 86 95 93 98 94 89 76 73 75 78 74 74 73 73
55 61 70 71 71 80 90 92 93 90 94 91 90 94 95 95 94 94 93 94 93 90 92 94 94 95 90 84 88 86 94 98 96 97 99 96 93 78 75 77 71 74 72
49 48 46 51 65 70 72 79 90 93 95 96 95 93 94 92 92 92 95 94 93 93 92 90 94 94 96 96 88 82 90 84 92 95 98 96 96 96 94 88 71 73 65
48 50 50 50 50 58 62 58 62 78 90 93 98 99 92 88 90 90 91 91 91 92 93 91 92 92 92 93 93 94 86 87 89 89 93 93 93 92 90 88 84 80 71
48 50 52 51 51 54 58 55 56 57 54 62 65 71 80 80 80 85 84 83 83 76 72 79 84 81 78 82 87 92 93 90 90 89 89 86 87 90 88 86 88 88 88
49 50 49 50 50 51 52 55 58 54 56 49 54 51 54 63 64 66 66 72 66 55 64 66 67 69 66 64 68 75 81 86 91 92 91 91 86 86 88 81 80 82 84
50 50 50 50 49 48 48 48 51 52 47 46 47 49 51 52 54 56 55 59 61 55 59 59 59 60 60 64 70 76 66 65 72 73 76 77 77 82 86 88 87 86 86
48 50 50 50 49 46 45 45 47 52 48 45 44 46 46 47 46 49 55 55 55 57 56 56 56 57 58 61 66 62 64 64 67 71 72 70 72 76 76 83 89 88 89
48 50 50 49 48 45 43 43 43 46 51 43 43 44 44 44 46 49 49 49 50 51 56 57 57 56 57 63 67 65 67 70 70 67 67 67 62 73 76 82 85 88 88
50 51 52 52 50 46 43 42 43 43 46 45 43 45 46 46 47 48 51 51 52 53 54 55 58 58 61 64 65 65 68 70 70 70 71 70 69 72 71 75 80 82 73
48 50 52 53 53 47 44 42 42 44 44 47 44 44 46 46 48 49 52 56 55 56 58 58 58 63 62 62 62 65 68 67 67 71 70 69 70 71 74 74 75 70 77
49 49 51 53 53 49 43 40 42 44 44 46 46 48 46 46 47 49 50 53 55 56 58 58 60 64 59 50 64 66 68 70 71 71 67 65 69 71 68 68 71 70 75
50 49 52 53 51 51 44 41 44 47 47 50 51 49 49 51 52 54 55 55 56 59 60 60 63 64 53 67 68 67 67 68 72 72 67 67 71 66 68 67 67 67 72
48 52 54 52 48 49 42 44 46 48 49 51 52 51 51 52 53 53 55 55 60 64 66 66 67 65 63 68 72 68 64 68 68 67 68 68 58 66 65 71 72 70 70
52 56 56 50 47 48 46 47 49 51 53 52 52 51 52 52 53 53 52 57 59 65 68 68 69 67 62 74 69 67 61 65 65 66 67 66 66 67 68 64 64 60 56
58 59 50 46 46 48 51 52 52 55 54 52 54 52 54 54 54 55 57 57 60 64 67 58 61 66 66 70 72 66 60 63 64 61 58 62 64 65 65 61 64 60 64
51 48 44 46 48 54 55 55 56 58 55 53 54 53 55 55 57 58 59 58 63 62 63 62 61 72 64 76 75 64 56 61 60 58 59 70 61 66 64 63 70 81 75
45 45 45 48 53 57 58 57 60 59 55 53 54 54 53 56 56 56 57 60 67 71 74 71 70 71 68 67 73 65 56 58 60 61 62 60 69 67 64 71 71 81 67
59 52 49 52 57 56 58 58 61 54 56 57 58 57 57 58 50 57 61 65 74 76 81 81 75 62 61 69 69 65 62 61 61 66 63 64 70 65 62 70 72 63 63
63 50 54 57 55 55 59 60 56 58 61 63 62 63 61 59 59 66 66 65 74 81 82 75 74 69 60 60 72 67 64 65 63 64 63 65 65 69 77 66 66 68 72
52 55 59 59 59 60 56 64 62 60 66 68 68 70 74 72 70 66 68 74 82 85 78 77 76 76 75 69 68 59 72 81 73 74 76 74 74 78 67 68 68 67 69
60 59 59 58 60 64 69 69 58 67 71 73 78 79 72 79 80 75 76 80 80 81 87 88 85 89 84 72 68 68 69 76 73 73 82 89 74 72 71 71 71 73 73
59 60 62 63 67 70 71 69 68 67 77 83 73 77 78 82 81 84 87 78 75 74 70 68 68 70 72 65 67 73 67 70 71 91 84 79 73 73 69 72 76 75 76
Wind_Speed
10 11 14 15 17 18 18 17 18 19 12 5 1 0 1 2 1 3 7 8 7 11 8 5 7 6 7 7 8 5 6 3 6 4 1 1 3 3 5 4 4 5 4
15 16 16 16 16 16 17 17 18 18 14 9 1 2 3 5 6 6 9 3 4 7 6 6 5 6 5 6 7 6 3 2 6 4 3 4 3 4 7 5 6 8 5
13 15 16 16 16 17 18 17 19 17 15 17 2 4 6 6 7 6 7 8 14 14 12 9 4 4 3 6 6 7 6 5 4 4 3 3 6 4 3 9 8 10 8
9 11 13 16 15 15 14 15 16 17 18 21 14 13 10 8 5 6 8 12 15 13 14 13 11 9 5 1 3 3 2 3 4 1 1 2 1 4 3 3 7 8 9
7 9 10 11 13 12 12 14 17 19 21 21 19 12 13 8 7 6 12 12 11 15 17 13 12 10 6 7 4 4 2 1 1 2 2 1 1 2 0 2 3 3 7
7 8 9 10 11 11 13 13 17 19 19 17 16 20 16 12 10 13 11 9 10 11 16 13 11 10 8 8 7 4 1 3 1 2 1 1 2 2 2 2 2 3 2
6 8 10 12 13 14 14 14 16 15 13 15 16 12 14 13 15 12 10 11 10 9 10 11 10 10 10 9 7 6 6 4 3 1 1 2 2 2 2 2 3 5 3
5 7 9 10 11 13 14 15 15 15 17 15 13 10 14 9 11 13 11 8 9 8 10 9 11 12 11 10 8 6 6 8 6 3 3 2 3 3 4 4 4 5 5
4 5 7 8 10 11 13 13 13 12 11 12 10 11 13 13 12 14 8 7 9 9 10 11 11 10 10 9 8 6 7 6 7 8 9 5 3 3 3 6 6 7 7
4 3 5 6 7 8 8 10 10 11 12 13 12 13 13 14 13 12 13 13 12 13 12 12 11 10 10 9 8 6 8 8 6 6 7 6 6 7 5 4 5 6 9
4 3 3 4 6 7 8 9 10 11 12 12 11 10 11 11 11 10 10 11 10 11 11 11 10 11 11 10 8 8 9 9 7 6 8 8 9 7 6 7 7 7 7
8 4 3 3 5 6 7 8 8 9 9 9 9 10 10 11 11 12 12 11 11 11 10 10 9 10 10 9 9 10 9 9 9 9 9 9 7 7 6 5 6 7 8
12 9 5 3 4 5 5 6 6 6 6 7 8 9 10 10 11 10 10 9 9 9 9 9 9 9 9 8 9 9 9 9 8 8 9 9 8 8 8 7 6 6 7
14 11 8 5 3 3 4 4 5 4 4 4 4 6 7 7 6 6 7 8 9 10 11 11 11 10 10 9 10 10 9 9 9 8 9 9 9 9 10 9 9 9 9
12 10 8 6 4 3 3 3 4 5 6 8 10 10 11 11 11 11 11 10 10 9 10 10 9 8 7 6 10 9 9 10 10 10 10 10 12 16 13 8 9 10 9
11 12 10 7 6 4 3 3 4 5 6 6 6 5 6 6 7 9 10 11 12 12 11 12 11 10 7 14 16 13 10 9 9 10 10 10 13 12 15 17 18 14 11
13 12 10 8 5 4 3 4 4 3 4 4 4 6 6 7 6 5 5 6 7 8 9 9 9 11 12 19 18 17 9 9 9 10 10 9 8 13 12 15 17 16 18
9 9 7 6 5 3 3 2 2 3 4 5 6 7 8 8 8 8 8 8 7 7 6 7 7 8 9 15 16 18 10 10 11 11 11 11 13 11 13 12 11 12 13
6 5 6 5 4 4 2 1 2 2 3 5 6 7 8 9 9 10 10 10 9 9 8 8 10 10 10 15 15 14 10 10 11 11 12 11 13 16 19 14 13 14 13
8 8 6 5 4 3 2 3 3 4 5 6 7 7 8 8 9 9 9 7 8 9 8 10 9 12 12 15 16 15 9 12 10 10 10 14 15 20 21 14 14 13 13
8 6 5 4 3 2 2 3 3 4 5 6 7 7 7 8 9 8 6 8 9 8 9 10 10 10 11 11 16 16 11 10 10 9 9 9 18 22 22 22 14 15 17
7 4 3 3 2 3 3 4 5 5 7 7 8 8 8 7 8 10 9 9 7 9 9 10 9 7 9 13 14 18 20 19 11 11 10 12 22 26 26 20 22 27 25
3 3 3 3 3 4 3 5 5 7 7 8 9 9 9 8 9 9 9 9 7 7 8 8 9 9 9 9 15 19 21 20 14 10 17 28 26 27 18 21 24 23 10
2 2 2 3 4 3 5 5 7 7 7 9 8 8 7 9 5 7 7 7 7 7 8 9 9 9 9 9 8 9 9 15 12 17 13 18 22 17 17 14 11 8 8
3 3 4 5 5 4 4 5 8 7 8 8 8 8 8 8 8 8 7 7 8 9 9 8 8 9 9 9 17 16 11 10 14 19 11 7 8 9 9 9 9 9 9
5 5 5 6 6 6 6 7 5 6 7 8 7 7 7 7 7 7 7 13 18 20 19 21 17 9 18 23 22 22 25 25 25 10 8 9 9 9 10 10 10 10 13
Wind_Direction
344 1 5 357 2 4 5 5 359 351 344 320 216 68 109 225 179 241 220 200 188 180 161 150 136 151 168 174 174 162 179 179 160 119 108 238 237 211 220 197 209 199 201
5 1 1 360 5 6 4 8 8 355 351 329 339 88 90 65 59 39 40 15 142 142 120 122 136 142 127 135 154 170 147 136 188 155 155 182 194 227 218 193 204 203 194
5 0 358 359 359 6 1 5 12 0 4 355 30 89 74 60 57 50 57 41 64 39 67 66 60 94 125 139 159 169 179 180 201 224 148 160 217 190 173 219 212 211 205
358 10 1 359 1 2 7 6 16 14 18 15 28 47 58 64 39 55 59 55 36 59 52 51 56 42 35 81 131 170 149 164 190 240 217 11 106 184 197 221 219 220 220
9 6 2 357 356 360 13 14 23 22 26 25 29 33 47 31 25 31 52 45 48 35 46 36 39 51 47 16 38 71 92 261 152 181 127 217 275 55 67 179 199 233 234
20 16 17 16 8 10 16 26 28 25 25 26 23 36 37 35 36 30 42 31 31 28 28 34 32 24 24 37 17 16 25 30 37 321 212 201 183 184 172 238 226 228 234
35 20 22 24 22 18 20 21 29 38 33 35 35 27 35 44 44 38 38 35 36 31 18 25 32 31 16 15 8 20 31 2 323 345 292 259 255 295 198 181 231 238 235
49 38 25 28 29 25 22 26 27 22 30 34 28 31 44 36 47 35 33 34 37 32 28 29 34 32 24 18 10 15 14 7 359 313 239 282 265 214 210 228 210 245 226
88 60 43 38 31 31 26 23 25 30 31 30 35 30 41 34 43 45 34 37 34 27 22 31 34 37 30 13 16 19 24 12 5 359 5 324 303 293 280 268 247 240 266
142 104 70 52 43 33 31 31 29 32 30 29 27 32 29 29 28 27 29 31 25 22 24 25 25 26 19 25 18 19 18 19 14 7 354 344 350 337 304 268 254 250 254
171 139 95 76 69 50 35 30 30 32 31 30 35 38 33 32 35 37 26 26 25 21 21 17 17 21 15 13 26 22 13 13 10 8 356 354 352 344 334 333 311 257 244
164 157 133 92 69 63 45 37 33 33 27 29 34 33 32 31 31 26 20 18 18 17 18 17 15 13 11 4 16 14 9 359 358 354 348 352 344 331 319 319 322 311 320
162 157 156 134 98 81 55 45 37 35 28 31 31 28 26 21 22 17 13 15 13 17 18 15 11 3 0 358 4 360 353 351 343 340 337 332 329 323 325 321 313 307 310
167 160 156 143 135 98 81 67 54 40 33 49 52 46 34 30 26 16 14 13 9 9 4 4 358 356 351 350 350 343 341 337 333 331 327 319 319 315 315 308 311 311 311
169 160 148 150 147 115 65 51 44 36 26 31 26 15 5 3 3 4 4 6 7 5 1 358 356 352 345 346 336 329 331 324 324 327 324 318 313 309 307 304 306 308 302
170 154 146 155 157 147 122 76 43 29 26 29 21 8 2 351 349 347 345 347 349 352 350 349 346 343 339 329 333 336 328 322 319 313 310 309 308 308 306 306 301 296 295
163 155 153 156 152 131 79 47 22 15 25 19 3 357 354 352 349 340 329 329 322 318 322 320 319 322 327 327 330 331 327 320 308 302 302 303 299 302 301 300 297 295 292
145 145 145 140 125 118 98 70 24 14 6 1 358 350 346 339 337 338 339 333 328 320 311 299 287 299 308 317 319 323 324 311 302 298 296 297 303 301 295 291 288 288 288
129 126 126 121 119 113 114 45 15 10 358 357 346 340 336 333 334 332 328 324 325 324 321 324 323 317 312 314 317 313 310 299 298 298 296 294 297 298 299 300 297 295 287
116 123 118 113 102 75 51 17 350 355 349 341 331 326 322 317 311 306 309 314 307 308 316 316 315 309 311 313 314 315 322 308 303 295 286 283 295 301 299 299 294 286 287
105 99 95 94 87 77 30 358 344 329 327 327 315 312 310 308 295 294 296 301 306 306 309 310 310 301 299 304 308 313 313 307 301 305 307 299 296 296 293 291 291 288 288
85 88 104 84 50 22 2 343 327 327 326 319 313 305 300 297 304 303 305 303 301 304 308 307 304 302 297 296 297 312 316 308 306 304 302 296 294 299 303 305 300 304 299
104 69 61 36 9 360 350 327 318 318 315 309 304 302 303 301 301 301 308 308 303 305 306 306 304 304 305 300 290 308 311 308 303 297 297 303 303 299 306 306 302 309 307
82 73 37 356 324 340 333 308 306 315 309 303 300 298 295 301 307 303 297 297 292 295 294 290 290 289 289 294 286 293 296 293 303 297 289 287 293 308 300 304 296 291 291
46 24 357 330 316 325 314 300 309 310 304 299 297 300 304 300 297 291 289 286 278 277 280 280 282 293 293 291 295 307 306 304 299 300 289 293 309 303 300 297 296 296 294
3 351 340 319 307 306 299 293 286 291 291 297 301 301 305 297 294 295 295 290 296 301 298 299 295 289 297 305 303 306 310 307 302 308 322 304 299 297 299 299 299 297 295